• Em Portugal
  • Lista de países
  • Para 7 dias
  • Temperatura da água
  • Mapas de satélite
  • Mapa do tempo
  • Widgets de tempo
  • user-avatar
    Iniciar Sessão

    Previsão horária em Pokomsze

    Hoje, 18 Outubro, Quinta-feira

    Tempo Temperatura Precipitação Vento Pressão Humidade
    00:00 +10°C° 0 mm 2 m/s 751 mmHg 69%
    01:00 +10°C° 0 mm 2 m/s 751 mmHg 71%
    02:00 +9°C° 0 mm 2 m/s 751 mmHg 76%
    03:00 +9°C° 0 mm 2 m/s 750 mmHg 79%
    04:00 +9°C° 0 mm 2 m/s 750 mmHg 81%
    05:00 +9°C° 0 mm 2 m/s 750 mmHg 84%
    06:00 +9°C° 0 mm 2 m/s 750 mmHg 85%
    07:00 +9°C° 0 mm 2 m/s 749 mmHg 85%
    08:00 +9°C° 0 mm 2 m/s 749 mmHg 86%
    09:00 +12°C° 0 mm 2 m/s 749 mmHg 78%
    10:00 +14°C° 0 mm 2 m/s 749 mmHg 70%
    11:00 +16°C° 0 mm 2 m/s 749 mmHg 62%
    12:00 +17°C° 0 mm 2 m/s 749 mmHg 57%
    13:00 +18°C° 0 mm 2 m/s 748 mmHg 53%
    14:00 +19°C° 0 mm 2 m/s 748 mmHg 49%
    15:00 +19°C° 0 mm 1 m/s 748 mmHg 53%
    16:00 +18°C° 0 mm 1 m/s 748 mmHg 57%
    17:00 +15°C° 0 mm 1 m/s 748 mmHg 61%
    18:00 +15°C° 0 mm 1 m/s 748 mmHg 64%
    19:00 +14°C° 0 mm 1 m/s 748 mmHg 67%
    20:00 +13°C° 0 mm 1 m/s 748 mmHg 70%
    21:00 +12°C° 0 mm 1 m/s 748 mmHg 71%
    22:00 +12°C° 0 mm 1 m/s 748 mmHg 72%
    23:00 +12°C° 0 mm 1 m/s 748 mmHg 74%

    Amanhã, 19 Outubro, Sexta-feira

    Tempo Temperatura Precipitação Vento Pressão Humidade
    00:00 +11°C° 0 mm 1 m/s 748 mmHg 76%
    01:00 +11°C° 0 mm 1 m/s 748 mmHg 78%
    02:00 +11°C° 0 mm 1 m/s 748 mmHg 80%
    03:00 +10°C° 0 mm 1 m/s 748 mmHg 83%
    04:00 +10°C° 0 mm 1 m/s 748 mmHg 86%
    05:00 +8°C° 0 mm 2 m/s 748 mmHg 89%
    06:00 +8°C° 0 mm 2 m/s 749 mmHg 90%
    07:00 +8°C° 0 mm 2 m/s 749 mmHg 92%
    08:00 +8°C° 0 mm 2 m/s 749 mmHg 93%
    09:00 +9°C° 0 mm 2 m/s 750 mmHg 88%
    10:00 +12°C° 0 mm 2 m/s 750 mmHg 84%
    11:00 +13°C° 0 mm 2 m/s 750 mmHg 79%
    12:00 +13°C° 0 mm 2 m/s 750 mmHg 78%
    13:00 +12°C° 0 mm 3 m/s 750 mmHg 77%
    14:00 +12°C° 0 mm 3 m/s 750 mmHg 77%
    15:00 +13°C° 0 mm 2 m/s 750 mmHg 77%
    16:00 +12°C° 0 mm 2 m/s 750 mmHg 77%
    17:00 +10°C° 0 mm 2 m/s 751 mmHg 77%
    18:00 +9°C° 0 mm 2 m/s 751 mmHg 80%
    19:00 +9°C° 0 mm 2 m/s 751 mmHg 82%
    20:00 +9°C° 0 mm 1 m/s 752 mmHg 85%
    21:00 +8°C° 0 mm 1 m/s 752 mmHg 86%
    22:00 +7°C° 0 mm 1 m/s 752 mmHg 88%
    23:00 +7°C° 0 mm 1 m/s 752 mmHg 90%

    Depois de amanhã, 20 Outubro, Sábado

    Tempo Temperatura Precipitação Vento Pressão Humidade
    00:00 +7°C° 0 mm 1 m/s 752 mmHg 90%
    01:00 +6°C° 0 mm 1 m/s 752 mmHg 91%
    02:00 +6°C° 0 mm 1 m/s 752 mmHg 92%
    03:00 +6°C° 0 mm 1 m/s 752 mmHg 92%
    04:00 +5°C° 0 mm 1 m/s 752 mmHg 93%
    05:00 +5°C° 0 mm 1 m/s 752 mmHg 93%
    06:00 +5°C° 0 mm 1 m/s 752 mmHg 93%
    07:00 +4°C° 0 mm 2 m/s 752 mmHg 93%
    08:00 +4°C° 0 mm 2 m/s 753 mmHg 92%
    09:00 +6°C° 0 mm 2 m/s 753 mmHg 85%
    10:00 +8°C° 0 mm 2 m/s 753 mmHg 77%
    11:00 +10°C° 0 mm 2 m/s 753 mmHg 70%
    12:00 +10°C° 0 mm 3 m/s 752 mmHg 68%
    13:00 +11°C° 0 mm 3 m/s 752 mmHg 67%
    14:00 +11°C° 0 mm 4 m/s 752 mmHg 65%
    15:00 +11°C° 0 mm 4 m/s 752 mmHg 68%
    16:00 +10°C° 0 mm 4 m/s 752 mmHg 70%
    17:00 +10°C° 0 mm 4 m/s 752 mmHg 73%
    18:00 +10°C° 0 mm 4 m/s 752 mmHg 74%
    19:00 +8°C° 0 mm 4 m/s 752 mmHg 75%
    20:00 +8°C° 0 mm 4 m/s 752 mmHg 76%
    21:00 +8°C° 0.1 mm 4 m/s 752 mmHg 80%
    22:00 +7°C° 0.1 mm 4 m/s 752 mmHg 85%
    23:00 +7°C° 0.1 mm 4 m/s 752 mmHg 89%

    21 Outubro, Domingo

    Tempo Temperatura Precipitação Vento Pressão Humidade
    00:00 +6°C° 0 mm 4 m/s 752 mmHg 91%
    01:00 +6°C° 0 mm 4 m/s 752 mmHg 92%
    02:00 +5°C° 0 mm 3 m/s 752 mmHg 93%
    03:00 +5°C° 0 mm 3 m/s 752 mmHg 93%
    04:00 +4°C° 0 mm 3 m/s 752 mmHg 93%
    05:00 +4°C° 0 mm 3 m/s 752 mmHg 93%
    06:00 +4°C° 0 mm 3 m/s 752 mmHg 92%
    07:00 +4°C° 0 mm 3 m/s 753 mmHg 91%
    08:00 +4°C° 0 mm 3 m/s 753 mmHg 90%
    09:00 +7°C° 0 mm 3 m/s 753 mmHg 82%
    10:00 +8°C° 0 mm 3 m/s 753 mmHg 74%
    11:00 +10°C° 0 mm 4 m/s 753 mmHg 66%
    12:00 +10°C° 0 mm 3 m/s 753 mmHg 63%
    13:00 +11°C° 0 mm 3 m/s 753 mmHg 60%
    14:00 +11°C° 0 mm 3 m/s 753 mmHg 57%
    15:00 +12°C° 0 mm 2 m/s 753 mmHg 61%
    16:00 +10°C° 0 mm 2 m/s 753 mmHg 66%
    17:00 +10°C° 0 mm 1 m/s 753 mmHg 70%
    18:00 +9°C° 0 mm 1 m/s 753 mmHg 73%
    19:00 +9°C° 0 mm 1 m/s 753 mmHg 77%
    20:00 +7°C° 0 mm 2 m/s 753 mmHg 80%
    21:00 +7°C° 0 mm 2 m/s 753 mmHg 82%
    22:00 +7°C° 0 mm 2 m/s 752 mmHg 83%
    23:00 +7°C° 0 mm 3 m/s 752 mmHg 85%

    22 Outubro, Segunda-feira

    Tempo Temperatura Precipitação Vento Pressão Humidade
    00:00 +8°C° 0 mm 3 m/s 752 mmHg 85%
    01:00 +8°C° 0 mm 3 m/s 752 mmHg 85%
    02:00 +7°C° 0 mm 4 m/s 751 mmHg 85%
    03:00 +8°C° 0.1 mm 4 m/s 751 mmHg 85%
    04:00 +8°C° 0.1 mm 4 m/s 751 mmHg 85%
    05:00 +8°C° 0.1 mm 4 m/s 750 mmHg 86%
    06:00 +8°C° 0 mm 5 m/s 750 mmHg 85%
    07:00 +8°C° 0 mm 5 m/s 750 mmHg 84%
    08:00 +8°C° 0 mm 5 m/s 749 mmHg 83%
    09:00 +9°C° 0 mm 5 m/s 749 mmHg 79%
    10:00 +9°C° 0 mm 5 m/s 749 mmHg 74%
    11:00 +10°C° 0 mm 6 m/s 749 mmHg 69%
    12:00 +10°C° 0.3 mm 5 m/s 749 mmHg 72%
    13:00 +9°C° 0.3 mm 5 m/s 748 mmHg 75%
    14:00 +9°C° 0.3 mm 5 m/s 748 mmHg 78%
    15:00 +9°C° 0.4 mm 5 m/s 748 mmHg 80%
    16:00 +8°C° 0.4 mm 4 m/s 748 mmHg 82%
    17:00 +8°C° 0.4 mm 4 m/s 748 mmHg 84%
    18:00 +8°C° 0.1 mm 3 m/s 748 mmHg 86%
    19:00 +8°C° 0.1 mm 3 m/s 748 mmHg 87%
    20:00 +7°C° 0.1 mm 3 m/s 748 mmHg 89%
    21:00 +7°C° 0 mm 3 m/s 747 mmHg 88%
    22:00 +7°C° 0 mm 3 m/s 747 mmHg 88%
    23:00 +7°C° 0 mm 3 m/s 747 mmHg 87%

    23 Outubro, Terça-feira

    Tempo Temperatura Precipitação Vento Pressão Humidade
    00:00 +7°C° 0 mm 3 m/s 747 mmHg 85%
    01:00 +7°C° 0 mm 3 m/s 746 mmHg 82%
    02:00 +5°C° 0 mm 3 m/s 746 mmHg 80%
    03:00 +5°C° 0 mm 3 m/s 746 mmHg 82%
    04:00 +5°C° 0 mm 4 m/s 745 mmHg 83%
    05:00 +4°C° 0 mm 4 m/s 745 mmHg 85%
    06:00 +4°C° 0.1 mm 4 m/s 744 mmHg 85%
    07:00 +4°C° 0.1 mm 4 m/s 744 mmHg 84%
    08:00 +4°C° 0.1 mm 4 m/s 744 mmHg 84%
    09:00 +5°C° 0 mm 5 m/s 744 mmHg 78%
    10:00 +6°C° 0 mm 5 m/s 744 mmHg 72%
    11:00 +7°C° 0 mm 5 m/s 743 mmHg 66%
    12:00 +7°C° 0 mm 5 m/s 743 mmHg 63%
    13:00 +8°C° 0 mm 5 m/s 743 mmHg 60%
    14:00 +8°C° 0 mm 5 m/s 742 mmHg 57%
    15:00 +8°C° 0 mm 4 m/s 742 mmHg 62%
    16:00 +8°C° 0 mm 3 m/s 742 mmHg 66%
    17:00 +7°C° 0 mm 2 m/s 741 mmHg 70%
    18:00 +7°C° 0.3 mm 2 m/s 741 mmHg 74%
    19:00 +6°C° 0.3 mm 2 m/s 741 mmHg 78%
    20:00 +5°C° 0.3 mm 3 m/s 741 mmHg 82%
    21:00 +5°C° 0.9 mm 3 m/s 740 mmHg 82%
    22:00 +5°C° 0.9 mm 4 m/s 740 mmHg 82%
    23:00 +5°C° 0.9 mm 4 m/s 740 mmHg 82%
    Mostrar mais